Terminal Aerodrome Forecast
Issued by NWS Atlanta, GA

Home | Current Version | Previous Version | Text Only | Print | Product List | Glossary On
Versions: 1 2 3 4 5 6 7 8 9 10 11 12 13 14 15 16 17 18 19 20 21 22 23 24 25 26 27 28 29 30 31 32 33 34 35 36 37 38 39
000
FTUS42 KFFC 291336 AAA
TAFATL
TAF AMD
KATL 291336Z 2914/3018 34005KT 2SM BR OVC004
     FM291500 34005KT 4SM BR OVC008
     FM291700 34005KT P6SM OVC015
     FM291900 35006KT P6SM SCT015 BKN025
     FM300300 33005KT P6SM BKN012
     FM300600 32005KT 5SM BR BKN007
     FM301400 32007KT P6SM OVC015=

USA.gov is the U.S. government's official web portal to all federal, state and local government web resources and services.